RYR86CZ LIME-LDZA

Flight info

Callsign RYR86CZ
Flight time 0h 54m
Altitude 33000
Route OSKOR DCT NEVNI DCT ADOSA DCT PEVAL DCT RJK/N0333F190 T742 KOTOR
Aircraft B739/M-SDE2E3FGHIRWXY/LB1

Departure

Time 2026-04-29 20:35
Airport Il Caravaggio International Airport (LIME)

Arrival

Time 2026-04-29 21:29
Airport Zagreb Franjo Tuđman International Airport (LDZA)
Time Latitude Longitude Altitude Speed Heading
2026-04-29 20:23 45.66638 9.70057 786 ft 1 kts 195°
2026-04-29 20:25 45.66651 9.70062 786 ft 3 kts 193°
2026-04-29 20:26 45.66670 9.70067 786 ft 3 kts 188°
2026-04-29 20:26 45.66690 9.70070 786 ft 3 kts 180°
2026-04-29 20:26 45.66710 9.70068 786 ft 3 kts 165°
2026-04-29 20:26 45.66727 9.70058 786 ft 3 kts 133°
2026-04-29 20:27 45.66733 9.70045 786 ft 1 kts 104°
2026-04-29 20:29 45.66731 9.70055 786 ft 3 kts 104°
2026-04-29 20:29 45.66723 9.70101 786 ft 7 kts 104°
2026-04-29 20:29 45.66706 9.70198 786 ft 13 kts 104°
2026-04-29 20:30 45.66678 9.70351 786 ft 17 kts 107°
2026-04-29 20:30 45.66647 9.70513 786 ft 16 kts 104°
2026-04-29 20:30 45.66618 9.70668 786 ft 16 kts 105°
2026-04-29 20:30 45.66594 9.70804 786 ft 15 kts 105°
2026-04-29 20:31 45.66560 9.70983 786 ft 21 kts 104°
2026-04-29 20:31 45.66512 9.71182 786 ft 16 kts 114°
2026-04-29 20:31 45.66482 9.71320 786 ft 14 kts 104°
2026-04-29 20:31 45.66456 9.71461 786 ft 16 kts 105°
2026-04-29 20:32 45.66441 9.71629 786 ft 18 kts 80°
2026-04-29 20:32 45.66471 9.71798 786 ft 17 kts 81°
2026-04-29 20:32 45.66454 9.71962 786 ft 17 kts 104°
2026-04-29 20:32 45.66438 9.72052 786 ft 11 kts 104°
2026-04-29 20:33 45.66412 9.72189 786 ft 10 kts 105°
2026-04-29 20:33 45.66394 9.72287 786 ft 10 kts 104°
2026-04-29 20:33 45.66377 9.72383 786 ft 10 kts 104°
2026-04-29 20:33 45.66402 9.72457 786 ft 10 kts 11°
2026-04-29 20:34 45.66459 9.72419 786 ft 9 kts 304°
2026-04-29 20:34 45.66467 9.72391 786 ft 1 kts 289°
2026-04-29 20:34 45.66481 9.72323 786 ft 15 kts 285°
2026-04-29 20:34 45.66556 9.71912 786 ft 80 kts 284°
2026-04-29 20:35 45.66759 9.70818 786 ft 145 kts 285°
2026-04-29 20:35 45.67030 9.69193 952 ft 180 kts 282°
2026-04-29 20:35 45.67295 9.67454 1688 ft 182 kts 271°
2026-04-29 20:35 45.66978 9.65678 2297 ft 183 kts 229°
2026-04-29 20:36 45.66039 9.64502 2930 ft 183 kts 210°
2026-04-29 20:36 45.65040 9.63450 3583 ft 185 kts 216°
2026-04-29 20:36 45.64047 9.62169 4248 ft 188 kts 220°
2026-04-29 20:36 45.63080 9.60864 4808 ft 195 kts 220°
2026-04-29 20:37 45.62087 9.59522 5416 ft 199 kts 221°
2026-04-29 20:37 45.61079 9.58131 5847 ft 211 kts 219°
2026-04-29 20:37 45.59675 9.57320 6028 ft 233 kts 179°
2026-04-29 20:37 45.58084 9.58048 6212 ft 258 kts 142°
2026-04-29 20:38 45.56962 9.60128 6608 ft 275 kts 111°
2026-04-29 20:38 45.56635 9.62820 7251 ft 279 kts 85°
2026-04-29 20:38 45.56973 9.65547 8044 ft 280 kts 75°
2026-04-29 20:38 45.57330 9.68304 8766 ft 286 kts 82°
2026-04-29 20:39 45.57509 9.71156 9492 ft 291 kts 84°
2026-04-29 20:39 45.57647 9.74050 10230 ft 294 kts 84°
2026-04-29 20:39 45.57787 9.77033 10587 ft 312 kts 84°
2026-04-29 20:39 45.57947 9.80238 10783 ft 334 kts 84°
2026-04-29 20:40 45.58122 9.83600 11278 ft 343 kts 84°
2026-04-29 20:40 45.58304 9.87000 12044 ft 344 kts 84°
2026-04-29 20:40 45.58492 9.90428 12777 ft 348 kts 84°
2026-04-29 20:40 45.58686 9.93895 13502 ft 353 kts 83°
2026-04-29 20:41 45.58884 9.97405 14211 ft 357 kts 83°
2026-04-29 20:41 45.59075 10.00971 14873 ft 362 kts 85°
2026-04-29 20:41 45.58995 10.04593 15504 ft 369 kts 92°
2026-04-29 20:41 45.58773 10.08264 16173 ft 374 kts 93°
2026-04-29 20:42 45.58517 10.11972 16836 ft 378 kts 94°
2026-04-29 20:42 45.58253 10.15737 17494 ft 383 kts 93°
2026-04-29 20:42 45.57991 10.19547 18147 ft 388 kts 93°
2026-04-29 20:42 45.57733 10.23406 18739 ft 393 kts 93°
2026-04-29 20:43 45.57477 10.27320 19299 ft 398 kts 93°
2026-04-29 20:43 45.57222 10.31282 19869 ft 403 kts 93°
2026-04-29 20:43 45.56966 10.35293 20446 ft 408 kts 93°
2026-04-29 20:43 45.56708 10.39344 20993 ft 413 kts 93°
2026-04-29 20:44 45.56446 10.43447 21542 ft 418 kts 93°
2026-04-29 20:44 45.56180 10.47602 22078 ft 423 kts 93°
2026-04-29 20:44 45.55909 10.51800 22606 ft 428 kts 94°
2026-04-29 20:44 45.55634 10.56047 23132 ft 432 kts 94°
2026-04-29 20:45 45.55449 10.58887 23475 ft 436 kts 94°
2026-04-29 20:45 45.55165 10.63217 23955 ft 441 kts 94°
2026-04-29 20:45 45.54877 10.67588 24401 ft 445 kts 94°
2026-04-29 20:45 45.54585 10.71996 24869 ft 448 kts 94°
2026-04-29 20:46 45.54288 10.76444 25322 ft 452 kts 94°
2026-04-29 20:46 45.53988 10.80917 25767 ft 456 kts 94°
2026-04-29 20:46 45.53683 10.85441 26197 ft 460 kts 94°
2026-04-29 20:46 45.53374 10.90002 26621 ft 464 kts 94°
2026-04-29 20:47 45.53060 10.94598 27068 ft 467 kts 94°
2026-04-29 20:47 45.52742 10.99226 27483 ft 471 kts 94°
2026-04-29 20:47 45.52419 11.03892 27867 ft 475 kts 94°
2026-04-29 20:47 45.52093 11.08588 28378 ft 476 kts 94°
2026-04-29 20:48 45.51765 11.13266 29034 ft 473 kts 94°
2026-04-29 20:48 45.51437 11.17930 29631 ft 472 kts 94°
2026-04-29 20:48 45.51106 11.22599 30085 ft 475 kts 94°
2026-04-29 20:48 45.50772 11.27295 30501 ft 476 kts 94°
2026-04-29 20:49 45.50436 11.31988 30974 ft 475 kts 94°
2026-04-29 20:49 45.50099 11.36665 31463 ft 474 kts 94°
2026-04-29 20:49 45.49760 11.41338 31916 ft 474 kts 94°
2026-04-29 20:49 45.49420 11.46008 32338 ft 474 kts 94°
2026-04-29 20:50 45.49079 11.50661 32863 ft 471 kts 94°
2026-04-29 20:50 45.48737 11.55299 33211 ft 472 kts 94°
2026-04-29 20:50 45.48043 11.64667 33174 ft 475 kts 94°
2026-04-29 20:51 45.47343 11.73963 33164 ft 469 kts 94°
2026-04-29 20:51 45.46641 11.83203 33182 ft 470 kts 94°
2026-04-29 20:52 45.45929 11.92489 33179 ft 472 kts 94°
2026-04-29 20:52 45.45207 12.01799 33171 ft 474 kts 94°
2026-04-29 20:53 45.44480 12.11072 33167 ft 475 kts 94°
2026-04-29 20:53 45.43737 12.20435 33165 ft 476 kts 94°
2026-04-29 20:54 45.42608 12.34494 33156 ft 476 kts 94°
2026-04-29 20:55 45.41846 12.43852 33152 ft 476 kts 94°
2026-04-29 20:55 45.41077 12.53205 33155 ft 475 kts 94°
2026-04-29 20:56 45.40303 12.62523 33159 ft 474 kts 95°
2026-04-29 20:56 45.39523 12.71822 33165 ft 473 kts 95°
2026-04-29 20:57 45.38736 12.81106 33165 ft 472 kts 95°
2026-04-29 20:57 45.37944 12.90372 33161 ft 472 kts 95°
2026-04-29 20:58 45.37143 12.99643 33160 ft 472 kts 95°
2026-04-29 20:58 45.36334 13.08919 33158 ft 473 kts 95°
2026-04-29 20:59 45.35516 13.18208 33159 ft 474 kts 95°
2026-04-29 20:59 45.34695 13.27444 33153 ft 475 kts 95°
2026-04-29 21:00 45.33860 13.36755 33153 ft 476 kts 95°
2026-04-29 21:00 45.33014 13.46093 33156 ft 477 kts 95°
2026-04-29 21:01 45.32160 13.55436 33155 ft 477 kts 95°
2026-04-29 21:01 45.31298 13.64785 33156 ft 478 kts 95°
2026-04-29 21:02 45.30427 13.74143 33155 ft 478 kts 95°
2026-04-29 21:02 45.30481 13.83483 33166 ft 471 kts 79°
2026-04-29 21:03 45.31324 13.92627 33144 ft 461 kts 78°
2026-04-29 21:03 45.32153 14.01615 33167 ft 459 kts 78°
2026-04-29 21:03 45.32549 14.06132 32908 ft 462 kts 79°
2026-04-29 21:04 45.32936 14.10666 32492 ft 461 kts 79°
2026-04-29 21:04 45.33309 14.15167 32058 ft 458 kts 79°
2026-04-29 21:04 45.33676 14.19649 31619 ft 455 kts 79°
2026-04-29 21:04 45.34033 14.24039 31160 ft 452 kts 79°
2026-04-29 21:05 45.34394 14.28514 30728 ft 448 kts 79°
2026-04-29 21:05 45.34749 14.32907 30322 ft 446 kts 79°
2026-04-29 21:05 45.35100 14.37274 29820 ft 444 kts 79°
2026-04-29 21:05 45.35449 14.41623 29341 ft 441 kts 80°
2026-04-29 21:06 45.35788 14.45878 28894 ft 437 kts 80°
2026-04-29 21:06 45.36128 14.50155 28459 ft 434 kts 80°
2026-04-29 21:06 45.36463 14.54397 28033 ft 430 kts 80°
2026-04-29 21:06 45.36794 14.58609 27600 ft 427 kts 80°
2026-04-29 21:07 45.37122 14.62795 27194 ft 424 kts 81°
2026-04-29 21:07 45.37446 14.66950 26773 ft 421 kts 81°
2026-04-29 21:07 45.37766 14.71077 26368 ft 418 kts 81°
2026-04-29 21:07 45.38082 14.75170 25964 ft 415 kts 81°
2026-04-29 21:08 45.38395 14.79240 25565 ft 413 kts 81°
2026-04-29 21:08 45.38704 14.83282 25176 ft 410 kts 81°
2026-04-29 21:08 45.39011 14.87306 24780 ft 408 kts 81°
2026-04-29 21:08 45.39313 14.91304 24391 ft 405 kts 82°
2026-04-29 21:09 45.39613 14.95279 24000 ft 403 kts 82°
2026-04-29 21:09 45.39910 14.99236 23565 ft 401 kts 82°
2026-04-29 21:09 45.40204 15.03173 23116 ft 399 kts 82°
2026-04-29 21:09 45.40494 15.07081 22707 ft 395 kts 82°
2026-04-29 21:10 45.40780 15.10948 22300 ft 391 kts 82°
2026-04-29 21:10 45.41062 15.14782 21922 ft 387 kts 82°
2026-04-29 21:10 45.41340 15.18577 21522 ft 384 kts 82°
2026-04-29 21:10 45.41614 15.22338 21134 ft 381 kts 82°
2026-04-29 21:11 45.41886 15.26071 20748 ft 378 kts 82°
2026-04-29 21:11 45.42154 15.29774 20367 ft 375 kts 82°
2026-04-29 21:11 45.42419 15.33445 19991 ft 372 kts 82°
2026-04-29 21:11 45.42680 15.37091 19612 ft 369 kts 82°
2026-04-29 21:12 45.42937 15.40709 19242 ft 366 kts 82°
2026-04-29 21:12 45.43189 15.44250 18878 ft 363 kts 81°
2026-04-29 21:12 45.43442 15.47817 18475 ft 361 kts 81°
2026-04-29 21:12 45.43692 15.51360 18062 ft 358 kts 82°
2026-04-29 21:13 45.43938 15.54873 17671 ft 355 kts 82°
2026-04-29 21:13 45.44182 15.58337 17354 ft 349 kts 82°
2026-04-29 21:13 45.44434 15.61717 17140 ft 341 kts 81°
2026-04-29 21:13 45.44691 15.65056 16801 ft 337 kts 81°
2026-04-29 21:14 45.44946 15.68361 16424 ft 335 kts 81°
2026-04-29 21:14 45.45197 15.71643 16066 ft 332 kts 82°
2026-04-29 21:14 45.45445 15.74906 15702 ft 330 kts 82°
2026-04-29 21:14 45.45611 15.77095 15456 ft 329 kts 82°
2026-04-29 21:15 45.45714 15.78470 15306 ft 328 kts 82°
2026-04-29 21:15 45.45956 15.81706 14943 ft 326 kts 82°
2026-04-29 21:15 45.46195 15.84907 14581 ft 324 kts 82°
2026-04-29 21:15 45.46574 15.88048 14204 ft 320 kts 69°
2026-04-29 21:16 45.47596 15.90806 13826 ft 313 kts 49°
2026-04-29 21:16 45.49041 15.93092 13473 ft 309 kts 44°
2026-04-29 21:16 45.50530 15.95281 13098 ft 306 kts 44°
2026-04-29 21:16 45.52012 15.97454 12736 ft 304 kts 44°
2026-04-29 21:17 45.53467 15.99607 12393 ft 300 kts 44°
2026-04-29 21:17 45.54906 16.01751 12035 ft 298 kts 44°
2026-04-29 21:17 45.56321 16.03880 11700 ft 295 kts 44°
2026-04-29 21:17 45.57723 16.06002 11360 ft 293 kts 44°
2026-04-29 21:18 45.59115 16.08109 11028 ft 290 kts 44°
2026-04-29 21:18 45.60492 16.10207 10587 ft 291 kts 45°
2026-04-29 21:18 45.61873 16.12317 10161 ft 287 kts 45°
2026-04-29 21:18 45.63198 16.14336 9909 ft 273 kts 45°
2026-04-29 21:19 45.64490 16.16300 9598 ft 269 kts 45°
2026-04-29 21:19 45.65766 16.18241 9270 ft 267 kts 45°
2026-04-29 21:19 45.67028 16.20161 8961 ft 264 kts 46°
2026-04-29 21:19 45.68278 16.22066 8655 ft 261 kts 46°
2026-04-29 21:20 45.69500 16.23930 8327 ft 260 kts 46°
2026-04-29 21:20 45.70729 16.25806 8010 ft 258 kts 46°
2026-04-29 21:20 45.71949 16.27669 7713 ft 255 kts 46°
2026-04-29 21:20 45.73155 16.29513 7415 ft 253 kts 46°
2026-04-29 21:21 45.74350 16.31340 7115 ft 250 kts 47°
2026-04-29 21:21 45.75535 16.33153 6812 ft 248 kts 47°
2026-04-29 21:21 45.76712 16.34956 6476 ft 247 kts 47°
2026-04-29 21:21 45.77885 16.36754 6113 ft 247 kts 47°
2026-04-29 21:22 45.79039 16.38524 5925 ft 240 kts 47°
2026-04-29 21:22 45.80298 16.40012 5780 ft 232 kts 26°
2026-04-29 21:22 45.81840 16.40517 5663 ft 226 kts
2026-04-29 21:22 45.83365 16.40116 5558 ft 222 kts 342°
2026-04-29 21:23 45.84665 16.38964 5462 ft 218 kts 324°
2026-04-29 21:23 45.85775 16.37521 5277 ft 215 kts 322°
2026-04-29 21:23 45.86863 16.36054 5062 ft 213 kts 322°
2026-04-29 21:23 45.87931 16.34620 4838 ft 207 kts 322°
2026-04-29 21:24 45.88925 16.33158 4609 ft 203 kts 307°
2026-04-29 21:24 45.89193 16.31209 4539 ft 208 kts 260°
2026-04-29 21:24 45.88542 16.29358 4347 ft 216 kts 236°
2026-04-29 21:24 45.87659 16.27582 4037 ft 219 kts 235°
2026-04-29 21:25 45.86727 16.25876 3740 ft 216 kts 231°
2026-04-29 21:25 45.85734 16.24298 3468 ft 210 kts 228°
2026-04-29 21:25 45.84746 16.22794 3187 ft 204 kts 227°
2026-04-29 21:25 45.83787 16.21342 2887 ft 197 kts 228°
2026-04-29 21:26 45.82865 16.19938 2618 ft 191 kts 228°
2026-04-29 21:26 45.81970 16.18576 2360 ft 183 kts 229°
2026-04-29 21:26 45.81119 16.17283 2121 ft 172 kts 229°
2026-04-29 21:26 45.80339 16.16093 1905 ft 157 kts 229°
2026-04-29 21:27 45.79850 16.15346 1764 ft 149 kts 229°
2026-04-29 21:27 45.78921 16.13957 1449 ft 145 kts 227°
2026-04-29 21:27 45.78238 16.12903 1251 ft 142 kts 228°
2026-04-29 21:27 45.77581 16.11887 1046 ft 136 kts 229°
2026-04-29 21:28 45.76944 16.10901 878 ft 134 kts 229°
2026-04-29 21:28 45.76301 16.09934 692 ft 134 kts 228°
2026-04-29 21:28 45.75664 16.08968 523 ft 133 kts 227°
2026-04-29 21:28 45.75031 16.07996 369 ft 133 kts 225°
2026-04-29 21:29 45.74477 16.07156 363 ft 91 kts 226°
2026-04-29 21:29 45.74173 16.06695 361 ft 52 kts 226°
2026-04-29 21:29 45.73978 16.06399 360 ft 17 kts 226°
2026-04-29 21:29 45.73899 16.06277 362 ft 16 kts 226°
2026-04-29 21:30 45.73883 16.06258 363 ft 3 kts 210°
2026-04-29 21:30 45.73843 16.06264 361 ft 9 kts 147°
2026-04-29 21:30 45.73792 16.06328 359 ft 10 kts 137°
2026-04-29 21:30 45.73738 16.06390 360 ft 10 kts 164°
2026-04-29 21:31 45.73693 16.06358 359 ft 6 kts 222°
2026-04-29 21:31 45.73663 16.06316 358 ft 6 kts 227°
2026-04-29 21:31 45.73625 16.06257 364 ft 10 kts 227°
2026-04-29 21:31 45.73572 16.06175 362 ft 12 kts 227°
2026-04-29 21:32 45.73517 16.06091 358 ft 11 kts 226°
2026-04-29 21:32 45.73484 16.06042 358 ft 2 kts 226°
2026-04-29 21:32 45.73477 16.06032 361 ft 1 kts 227°
2026-04-29 21:32 45.73467 16.06021 358 ft 3 kts 201°
2026-04-29 21:33 45.73431 16.06047 358 ft 7 kts 139°
2026-04-29 21:33 45.73414 16.06069 362 ft 2 kts 137°
2026-04-29 21:33 45.73408 16.06078 358 ft 0 kts 137°